When you browse on this site, cookies collect data to enhance your experience and personalize the content and advertising you see.
Visit our Privacy Policy to learn more. By continuing to use the site, you agree to this use of cookies and data.
  • In Lithuania
  • List of Countries
  • For 7 days
  • Water Temperature
  • Weather Map
  • Weather Widgets
  • user-avatar
    Login

    Hourly Weather Herāt

    Today, 10 December, Tuesday

    Time Temperature Precipitation Wind Pressure Humidity
    00:00 +12°C° 0.3 mm 1 mps 680 mmHg 65%
    01:00 +12°C° 0.3 mm 1 mps 680 mmHg 67%
    02:00 +11°C° 0.4 mm 1 mps 680 mmHg 67%
    03:00 +11°C° 0.4 mm 1 mps 679 mmHg 68%
    04:00 +11°C° 0 mm 1 mps 680 mmHg 70%
    05:00 +11°C° 0.2 mm 1 mps 680 mmHg 71%
    06:00 +11°C° 0.2 mm 1 mps 680 mmHg 72%
    07:00 +10°C° 0.2 mm 1 mps 681 mmHg 73%
    08:00 +12°C° 0.1 mm 1 mps 681 mmHg 67%
    09:00 +13°C° 0.1 mm 1 mps 681 mmHg 60%
    10:00 +13°C° 0 mm 1 mps 681 mmHg 59%
    11:00 +14°C° 0.2 mm 1 mps 681 mmHg 56%
    12:00 +15°C° 0.2 mm 2 mps 681 mmHg 53%
    13:00 +15°C° 0.2 mm 2 mps 680 mmHg 50%
    14:00 +15°C° 0.2 mm 2 mps 680 mmHg 51%
    15:00 +13°C° 0.2 mm 3 mps 680 mmHg 52%
    16:00 +13°C° 0.2 mm 3 mps 679 mmHg 53%
    17:00 +13°C° 0 mm 2 mps 679 mmHg 57%
    18:00 +12°C° 0 mm 1 mps 679 mmHg 61%
    19:00 +12°C° 0 mm 1 mps 680 mmHg 65%
    20:00 +11°C° 0 mm 1 mps 679 mmHg 65%
    21:00 +10°C° 0 mm 0 mps 679 mmHg 66%
    22:00 +9°C° 0 mm 0 mps 679 mmHg 67%
    23:00 +9°C° 0 mm 0 mps 679 mmHg 68%

    Tomorrow, 11 December, Wednesday

    Time Temperature Precipitation Wind Pressure Humidity
    00:00 +9°C° 0 mm 0 mps 679 mmHg 68%
    01:00 +8°C° 0 mm 0 mps 678 mmHg 69%
    02:00 +8°C° 0 mm 0 mps 678 mmHg 69%
    03:00 +8°C° 0 mm 0 mps 678 mmHg 68%
    04:00 +8°C° 0 mm 0 mps 678 mmHg 68%
    05:00 +8°C° 0 mm 0 mps 678 mmHg 68%
    06:00 +9°C° 0 mm 1 mps 678 mmHg 67%
    07:00 +9°C° 0 mm 1 mps 678 mmHg 67%
    08:00 +10°C° 0 mm 1 mps 678 mmHg 59%
    09:00 +12°C° 0 mm 1 mps 678 mmHg 52%
    10:00 +13°C° 0 mm 1 mps 679 mmHg 45%
    11:00 +14°C° 0 mm 1 mps 678 mmHg 43%
    12:00 +14°C° 0 mm 1 mps 677 mmHg 41%
    13:00 +15°C° 0 mm 1 mps 677 mmHg 38%
    14:00 +14°C° 0 mm 1 mps 677 mmHg 41%
    15:00 +14°C° 0 mm 1 mps 676 mmHg 43%
    16:00 +14°C° 0 mm 2 mps 676 mmHg 45%
    17:00 +13°C° 0 mm 2 mps 676 mmHg 49%
    18:00 +12°C° 0 mm 1 mps 676 mmHg 53%
    19:00 +11°C° 0 mm 1 mps 676 mmHg 57%
    20:00 +11°C° 0 mm 1 mps 677 mmHg 59%
    21:00 +11°C° 0 mm 1 mps 677 mmHg 60%
    22:00 +10°C° 0 mm 1 mps 677 mmHg 61%
    23:00 +9°C° 0 mm 2 mps 677 mmHg 63%

    Day after tomorrow, 12 December, Thursday

    Time Temperature Precipitation Wind Pressure Humidity
    00:00 +9°C° 0 mm 2 mps 677 mmHg 65%
    01:00 +8°C° 0 mm 2 mps 677 mmHg 67%
    02:00 +8°C° 0 mm 2 mps 677 mmHg 68%
    03:00 +8°C° 0 mm 2 mps 677 mmHg 69%
    04:00 +8°C° 0 mm 2 mps 676 mmHg 70%
    05:00 +7°C° 0 mm 2 mps 677 mmHg 70%
    06:00 +7°C° 0 mm 2 mps 677 mmHg 70%
    07:00 +7°C° 0 mm 2 mps 678 mmHg 71%
    08:00 +7°C° 0 mm 2 mps 678 mmHg 67%
    09:00 +8°C° 0 mm 2 mps 678 mmHg 64%
    10:00 +8°C° 0 mm 2 mps 679 mmHg 60%
    11:00 +9°C° 0 mm 3 mps 679 mmHg 59%
    12:00 +8°C° 0 mm 4 mps 678 mmHg 58%
    13:00 +9°C° 0 mm 5 mps 678 mmHg 56%
    14:00 +8°C° 0 mm 5 mps 678 mmHg 58%
    15:00 +8°C° 0 mm 4 mps 678 mmHg 59%
    16:00 +7°C° 0 mm 4 mps 678 mmHg 60%
    17:00 +7°C° 0 mm 4 mps 678 mmHg 64%
    18:00 +7°C° 0 mm 3 mps 679 mmHg 67%
    19:00 +5°C° 0 mm 3 mps 679 mmHg 71%
    20:00 +5°C° 0 mm 3 mps 679 mmHg 73%
    21:00 +6°C° 0 mm 2 mps 679 mmHg 75%
    22:00 +5°C° 0 mm 2 mps 679 mmHg 77%
    23:00 +5°C° 0 mm 2 mps 678 mmHg 77%

    13 December, Friday

    Time Temperature Precipitation Wind Pressure Humidity
    00:00 +5°C° 0 mm 2 mps 678 mmHg 77%
    01:00 +5°C° 0 mm 2 mps 678 mmHg 77%
    02:00 +5°C° 0 mm 1 mps 678 mmHg 79%
    03:00 +5°C° 0 mm 1 mps 677 mmHg 80%
    04:00 +4°C° 0 mm 1 mps 677 mmHg 82%
    05:00 +4°C° 0 mm 1 mps 677 mmHg 83%
    06:00 +4°C° 0 mm 1 mps 677 mmHg 85%
    07:00 +2°C° 0 mm 0 mps 677 mmHg 86%
    08:00 +4°C° 0 mm 0 mps 677 mmHg 80%
    09:00 +6°C° 0 mm 1 mps 677 mmHg 74%
    10:00 +7°C° 0 mm 1 mps 678 mmHg 67%
    11:00 +8°C° 0 mm 1 mps 677 mmHg 61%
    12:00 +9°C° 0 mm 1 mps 677 mmHg 55%
    13:00 +10°C° 0 mm 1 mps 676 mmHg 49%
    14:00 +10°C° 0 mm 1 mps 676 mmHg 47%
    15:00 +10°C° 0 mm 1 mps 676 mmHg 45%
    16:00 +10°C° 0 mm 1 mps 676 mmHg 43%
    17:00 +10°C° 0 mm 1 mps 676 mmHg 46%
    18:00 +9°C° 0 mm 1 mps 677 mmHg 48%
    19:00 +9°C° 0 mm 1 mps 677 mmHg 51%
    20:00 +8°C° 0 mm 1 mps 677 mmHg 52%
    21:00 +8°C° 0 mm 1 mps 677 mmHg 53%
    22:00 +8°C° 0 mm 1 mps 677 mmHg 53%
    23:00 +8°C° 0 mm 1 mps 677 mmHg 53%

    14 December, Saturday

    Time Temperature Precipitation Wind Pressure Humidity
    00:00 +7°C° 0 mm 1 mps 677 mmHg 52%
    01:00 +7°C° 0 mm 1 mps 677 mmHg 52%
    02:00 +7°C° 0 mm 1 mps 677 mmHg 51%
    03:00 +7°C° 0 mm 1 mps 677 mmHg 51%
    04:00 +6°C° 0 mm 0 mps 677 mmHg 50%
    05:00 +6°C° 0 mm 0 mps 678 mmHg 50%
    06:00 +8°C° 0 mm 1 mps 679 mmHg 50%
    07:00 +8°C° 0 mm 1 mps 679 mmHg 50%
    08:00 +7°C° 0 mm 2 mps 680 mmHg 51%
    09:00 +8°C° 0 mm 2 mps 681 mmHg 52%
    10:00 +9°C° 0 mm 3 mps 682 mmHg 52%
    11:00 +8°C° 0 mm 2 mps 681 mmHg 57%
    12:00 +8°C° 0 mm 2 mps 681 mmHg 63%
    13:00 +8°C° 0 mm 1 mps 681 mmHg 68%
    14:00 +9°C° 0 mm 1 mps 681 mmHg 67%
    15:00 +9°C° 0 mm 1 mps 681 mmHg 65%
    16:00 +9°C° 0 mm 1 mps 681 mmHg 63%
    17:00 +9°C° 0 mm 1 mps 682 mmHg 67%
    18:00 +8°C° 0 mm 1 mps 682 mmHg 71%
    19:00 +7°C° 0 mm 2 mps 682 mmHg 75%
    20:00 +7°C° 0 mm 1 mps 682 mmHg 76%
    21:00 +7°C° 0 mm 1 mps 682 mmHg 78%
    22:00 +6°C° 0 mm 1 mps 682 mmHg 80%
    23:00 +6°C° 0 mm 1 mps 682 mmHg 80%

    15 December, Sunday

    Time Temperature Precipitation Wind Pressure Humidity
    00:00 +6°C° 0 mm 1 mps 682 mmHg 80%
    01:00 +4°C° 0 mm 0 mps 682 mmHg 81%
    02:00 +4°C° 0 mm 0 mps 682 mmHg 81%
    03:00 +4°C° 0 mm 0 mps 681 mmHg 81%
    04:00 +3°C° 0 mm 0 mps 681 mmHg 82%
    05:00 +3°C° 0 mm 0 mps 681 mmHg 82%
    06:00 +3°C° 0 mm 0 mps 681 mmHg 82%
    07:00 +3°C° 0 mm 0 mps 681 mmHg 82%
    08:00 +4°C° 0 mm 0 mps 682 mmHg 74%
    09:00 +6°C° 0 mm 0 mps 682 mmHg 67%
    10:00 +7°C° 0 mm 0 mps 682 mmHg 59%
    11:00 +9°C° 0 mm 1 mps 682 mmHg 55%
    12:00 +10°C° 0 mm 1 mps 681 mmHg 52%
    13:00 +11°C° 0 mm 1 mps 681 mmHg 48%
    14:00 +11°C° 0 mm 1 mps 681 mmHg 49%
    15:00 +11°C° 0 mm 1 mps 681 mmHg 49%
    16:00 +10°C° 0 mm 2 mps 681 mmHg 49%
    17:00 +10°C° 0 mm 1 mps 681 mmHg 54%
    18:00 +9°C° 0 mm 1 mps 681 mmHg 59%
    19:00 +8°C° 0 mm 1 mps 681 mmHg 63%
    20:00 +8°C° 0 mm 1 mps 681 mmHg 65%
    21:00 +6°C° 0 mm 0 mps 682 mmHg 67%
    22:00 +6°C° 0 mm 0 mps 682 mmHg 68%
    23:00 +5°C° 0 mm 0 mps 681 mmHg 70%
    Show more